• In Belarus
  • List of Countries
  • For 7 days
  • Water Temperature
  • Satellite Maps
  • Weather Map
  • Weather Widgets
  • user-avatar
    Login

    Hourly Weather Smolan

    Today, 20 November, Monday

    Time Temperature Precipitation Wind Pressure Humidity
    00:00 +4°C° 0.5 mm 1 mps 649 mmHg 92%
    01:00 +4°C° 0.5 mm 1 mps 649 mmHg 93%
    02:00 +3°C° 0 mm 2 mps 649 mmHg 94%
    03:00 +2°C° 1.2 mm 2 mps 649 mmHg 94%
    04:00 +2°C° 1.2 mm 2 mps 649 mmHg 94%
    05:00 +2°C° 1.2 mm 1 mps 649 mmHg 94%
    06:00 +1°C° 1 mm 2 mps 649 mmHg 91%
    07:00 -1°C° 1 mm 3 mps 649 mmHg 88%
    08:00 -3°C° 0 mm 4 mps 648 mmHg 85%
    09:00 -2°C° 0.3 mm 4 mps 649 mmHg 80%
    10:00 -2°C° 0.3 mm 5 mps 649 mmHg 76%
    11:00 -2°C° 0.3 mm 5 mps 650 mmHg 72%
    12:00 -2°C° 0.1 mm 5 mps 650 mmHg 68%
    13:00 -2°C° 0.1 mm 5 mps 651 mmHg 65%
    14:00 -1°C° 0.1 mm 5 mps 651 mmHg 62%
    15:00 -2°C° 0 mm 4 mps 651 mmHg 64%
    16:00 -3°C° 0 mm 4 mps 651 mmHg 66%
    17:00 -4°C° 0 mm 3 mps 651 mmHg 68%
    18:00 -4°C° 0 mm 3 mps 651 mmHg 70%
    19:00 -5°C° 0 mm 3 mps 651 mmHg 72%
    20:00 -5°C° 0 mm 3 mps 652 mmHg 74%
    21:00 -5°C° 0 mm 3 mps 652 mmHg 74%
    22:00 -6°C° 0 mm 3 mps 652 mmHg 74%
    23:00 -6°C° 0 mm 3 mps 653 mmHg 74%

    Tomorrow, 21 November, Tuesday

    Time Temperature Precipitation Wind Pressure Humidity
    00:00 -6°C° 0 mm 3 mps 653 mmHg 73%
    01:00 -6°C° 0 mm 3 mps 653 mmHg 72%
    02:00 -5°C° 0 mm 2 mps 653 mmHg 71%
    03:00 -6°C° 0 mm 2 mps 653 mmHg 70%
    04:00 -6°C° 0 mm 2 mps 653 mmHg 69%
    05:00 -6°C° 0 mm 2 mps 653 mmHg 68%
    06:00 -5°C° 0 mm 2 mps 654 mmHg 67%
    07:00 -5°C° 0 mm 2 mps 654 mmHg 66%
    08:00 -5°C° 0 mm 2 mps 654 mmHg 65%
    09:00 -3°C° 0 mm 2 mps 655 mmHg 58%
    10:00 -1°C° 0 mm 2 mps 656 mmHg 51%
    11:00 +2°C° 0 mm 2 mps 657 mmHg 44%
    12:00 +2°C° 0 mm 2 mps 656 mmHg 43%
    13:00 +3°C° 0 mm 2 mps 656 mmHg 42%
    14:00 +4°C° 0 mm 2 mps 656 mmHg 42%
    15:00 +2°C° 0 mm 2 mps 655 mmHg 48%
    16:00 +2°C° 0 mm 1 mps 655 mmHg 55%
    17:00 0°C° 0 mm 1 mps 654 mmHg 61%
    18:00 0°C° 0 mm 1 mps 654 mmHg 63%
    19:00 0°C° 0 mm 1 mps 655 mmHg 65%
    20:00 -3°C° 0 mm 2 mps 655 mmHg 67%
    21:00 -3°C° 0 mm 2 mps 655 mmHg 66%
    22:00 -2°C° 0 mm 2 mps 655 mmHg 65%
    23:00 -2°C° 0 mm 2 mps 655 mmHg 65%

    Day after tomorrow, 22 November, Wednesday

    Time Temperature Precipitation Wind Pressure Humidity
    00:00 -2°C° 0 mm 2 mps 655 mmHg 65%
    01:00 -2°C° 0 mm 2 mps 655 mmHg 64%
    02:00 -2°C° 0 mm 2 mps 655 mmHg 64%
    03:00 -2°C° 0 mm 2 mps 654 mmHg 64%
    04:00 -2°C° 0 mm 2 mps 654 mmHg 65%
    05:00 -2°C° 0 mm 2 mps 654 mmHg 65%
    06:00 -2°C° 0 mm 2 mps 654 mmHg 65%
    07:00 -1°C° 0 mm 2 mps 655 mmHg 66%
    08:00 -1°C° 0 mm 2 mps 655 mmHg 66%
    09:00 +2°C° 0 mm 2 mps 656 mmHg 60%
    10:00 +5°C° 0 mm 2 mps 657 mmHg 55%
    11:00 +7°C° 0 mm 2 mps 657 mmHg 50%
    12:00 +7°C° 0 mm 2 mps 657 mmHg 49%
    13:00 +8°C° 0 mm 2 mps 657 mmHg 49%
    14:00 +9°C° 0 mm 2 mps 657 mmHg 49%
    15:00 +7°C° 0 mm 2 mps 657 mmHg 56%
    16:00 +6°C° 0 mm 1 mps 656 mmHg 63%
    17:00 +5°C° 0 mm 1 mps 656 mmHg 69%
    18:00 +4°C° 0 mm 1 mps 656 mmHg 71%
    19:00 +4°C° 0 mm 1 mps 656 mmHg 72%
    20:00 +2°C° 0 mm 2 mps 656 mmHg 73%
    21:00 +2°C° 0 mm 2 mps 656 mmHg 73%
    22:00 +2°C° 0 mm 2 mps 656 mmHg 72%
    23:00 +2°C° 0 mm 2 mps 656 mmHg 72%

    23 November, Thursday

    Time Temperature Precipitation Wind Pressure Humidity
    00:00 +2°C° 0 mm 2 mps 656 mmHg 72%
    01:00 +2°C° 0 mm 2 mps 656 mmHg 72%
    02:00 +2°C° 0 mm 2 mps 656 mmHg 72%
    03:00 +2°C° 0 mm 2 mps 656 mmHg 71%
    04:00 +2°C° 0 mm 2 mps 656 mmHg 71%
    05:00 +2°C° 0 mm 2 mps 656 mmHg 71%
    06:00 +2°C° 0 mm 2 mps 656 mmHg 68%
    07:00 +2°C° 0 mm 2 mps 656 mmHg 66%
    08:00 +2°C° 0 mm 2 mps 656 mmHg 64%
    09:00 +6°C° 0 mm 1 mps 657 mmHg 58%
    10:00 +8°C° 0 mm 1 mps 658 mmHg 51%
    11:00 +10°C° 0 mm 1 mps 659 mmHg 45%
    12:00 +11°C° 0 mm 1 mps 659 mmHg 44%
    13:00 +11°C° 0 mm 1 mps 659 mmHg 44%
    14:00 +12°C° 0 mm 1 mps 658 mmHg 44%
    15:00 +10°C° 0 mm 1 mps 658 mmHg 51%
    16:00 +7°C° 0 mm 0 mps 658 mmHg 58%
    17:00 +5°C° 0 mm 0 mps 657 mmHg 65%
    18:00 +6°C° 0 mm 1 mps 657 mmHg 66%
    19:00 +5°C° 0 mm 1 mps 658 mmHg 67%
    20:00 +5°C° 0 mm 1 mps 658 mmHg 68%
    21:00 +5°C° 0 mm 1 mps 658 mmHg 68%
    22:00 +4°C° 0 mm 1 mps 658 mmHg 68%
    23:00 +4°C° 0 mm 1 mps 658 mmHg 68%

    24 November, Friday

    Time Temperature Precipitation Wind Pressure Humidity
    00:00 +4°C° 0 mm 1 mps 658 mmHg 68%
    01:00 +3°C° 0 mm 1 mps 658 mmHg 67%
    02:00 +3°C° 0 mm 1 mps 658 mmHg 67%
    03:00 +3°C° 0 mm 1 mps 658 mmHg 66%
    04:00 +3°C° 0 mm 1 mps 658 mmHg 66%
    05:00 +3°C° 0 mm 1 mps 658 mmHg 66%
    06:00 +3°C° 0 mm 1 mps 658 mmHg 65%
    07:00 +3°C° 0 mm 1 mps 658 mmHg 65%
    08:00 +3°C° 0 mm 1 mps 659 mmHg 64%
    09:00 +5°C° 0 mm 1 mps 659 mmHg 59%
    10:00 +7°C° 0 mm 1 mps 660 mmHg 53%
    11:00 +9°C° 0 mm 1 mps 661 mmHg 48%
    12:00 +9°C° 0 mm 1 mps 661 mmHg 48%
    13:00 +10°C° 0 mm 1 mps 660 mmHg 47%
    14:00 +10°C° 0 mm 1 mps 660 mmHg 47%
    15:00 +9°C° 0 mm 1 mps 660 mmHg 54%
    16:00 +7°C° 0 mm 1 mps 659 mmHg 62%
    17:00 +5°C° 0 mm 1 mps 659 mmHg 69%
    18:00 +5°C° 0 mm 1 mps 659 mmHg 71%
    19:00 +4°C° 0 mm 1 mps 659 mmHg 73%
    20:00 +4°C° 0 mm 1 mps 660 mmHg 75%
    21:00 +3°C° 0 mm 1 mps 660 mmHg 76%
    22:00 +3°C° 0 mm 1 mps 660 mmHg 76%
    23:00 +3°C° 0 mm 1 mps 660 mmHg 76%

    25 November, Saturday

    Time Temperature Precipitation Wind Pressure Humidity
    00:00 +3°C° 0 mm 1 mps 660 mmHg 77%
    01:00 +3°C° 0 mm 1 mps 660 mmHg 77%
    02:00 +2°C° 0 mm 1 mps 660 mmHg 77%
    03:00 +2°C° 0 mm 1 mps 660 mmHg 77%
    04:00 +2°C° 0 mm 1 mps 660 mmHg 77%
    05:00 +2°C° 0 mm 1 mps 660 mmHg 77%
    06:00 +2°C° 0 mm 1 mps 660 mmHg 76%
    07:00 +2°C° 0 mm 1 mps 661 mmHg 75%
    08:00 +2°C° 0 mm 1 mps 661 mmHg 74%
    09:00 +4°C° 0 mm 1 mps 661 mmHg 68%
    10:00 +6°C° 0 mm 1 mps 662 mmHg 61%
    11:00 +8°C° 0 mm 1 mps 663 mmHg 55%
    12:00 +8°C° 0 mm 1 mps 662 mmHg 54%
    13:00 +9°C° 0 mm 1 mps 662 mmHg 54%
    14:00 +9°C° 0 mm 1 mps 662 mmHg 53%
    15:00 +8°C° 0 mm 1 mps 662 mmHg 61%
    16:00 +6°C° 0 mm 1 mps 661 mmHg 69%
    17:00 +5°C° 0 mm 1 mps 661 mmHg 76%
    18:00 +4°C° 0 mm 1 mps 661 mmHg 79%
    19:00 +4°C° 0 mm 1 mps 661 mmHg 81%
    20:00 +3°C° 0 mm 1 mps 661 mmHg 83%
    21:00 +3°C° 0 mm 1 mps 661 mmHg 83%
    22:00 +3°C° 0 mm 1 mps 661 mmHg 83%
    23:00 +2°C° 0 mm 1 mps 661 mmHg 83%
    Show more